Retour au catalogue

CZ-6A DEB

ActifSSO
NORAD 55189·DEBRIS·🇨🇳 China

Lancé Nov 11, 2022 depuis Taiyuan Satellite Launch Center

Loading…

Prochains Passages (prochaines 24 heures)

TLE

FraisSource: Space-Track

Époque: Sep 14, 2026, 23:27 UTC

1 55189U 22151VE  26257.97739272  .00001847  00000-0  88661-3 0  9999
2 55189  98.8476 268.8907 0049181  73.4965 287.1607 14.19512793195377

Suivez CZ-6A DEB en temps réel avec AllMySat

Download on the App Store